GFSCGP_sfc_temp_132.txt.gz
Temp
68 64 60 65 67 70 66 64 63 69 74 70 70 72 77 82 83 82 83 85 86 88 93 92 89 90 81 78 83 74 81 81 85 82 81 75 75 82 84 84 84 84 82 84
62 59 69 70 69 67 65 63 63 70 73 70 70 70 77 81 81 83 84 85 86 88 92 92 89 89 89 88 85 78 76 77 74 78 75 77 75 74 77 81 75 75 78 82
62 64 70 67 65 62 64 62 63 64 70 73 70 67 73 79 81 82 85 87 88 89 90 92 90 90 79 87 81 81 82 85 83 83 78 74 77 78 75 80 78 78 79 81
65 71 66 65 64 66 60 69 67 65 64 59 70 58 69 75 76 80 82 83 85 88 90 90 90 89 92 90 85 84 83 81 83 83 82 78 76 75 78 80 81 78 79 81
61 64 64 62 65 69 64 71 68 67 64 64 65 61 68 74 72 77 80 82 84 85 85 86 89 92 93 90 89 85 83 83 83 81 83 80 78 83 83 78 82 79 79 81
67 73 71 69 71 70 71 66 66 66 65 55 63 63 65 71 72 76 79 81 80 82 84 85 86 88 89 90 87 83 79 79 80 82 81 81 80 82 79 77 81 80 76 77
63 65 70 72 65 71 66 61 53 51 53 52 66 62 65 72 75 75 75 78 79 81 83 83 84 86 86 85 85 84 81 78 80 80 81 82 81 79 80 78 79 77 80 81
52 51 64 71 67 62 63 62 55 45 50 57 63 56 68 75 75 75 76 76 78 80 82 82 82 82 84 84 81 84 84 83 82 82 81 81 81 83 82 81 81 83 83 82
54 53 68 69 72 70 63 56 67 58 60 55 62 65 70 73 72 73 74 75 75 77 78 79 81 80 80 81 78 80 81 82 82 81 80 80 80 80 82 80 79 84 83 85
61 48 65 67 70 70 67 70 56 60 46 45 57 58 61 66 69 71 72 72 74 77 79 79 79 79 80 80 79 79 78 78 78 79 79 81 80 81 81 81 79 81 81 82
66 59 56 65 61 60 61 60 62 61 58 48 48 56 68 68 70 69 71 73 74 76 79 80 80 81 83 83 83 80 81 79 80 82 82 81 82 82 81 81 81 81 80 80
63 56 48 55 62 64 64 62 61 48 49 56 55 55 68 68 71 72 72 73 75 77 79 81 81 82 82 81 81 79 79 81 81 82 82 81 81 81 80 80 80 81 79 80
61 52 44 45 56 62 59 62 62 60 57 50 45 53 68 68 69 71 71 73 73 75 77 78 79 79 80 80 80 79 78 76 79 79 78 77 77 77 77 77 77 78 78 78
58 55 51 37 45 57 53 57 60 58 48 52 54 58 61 64 65 69 70 71 73 73 75 76 76 79 77 76 77 78 77 76 76 77 76 74 73 73 73 74 74 75 76 75
58 50 53 54 53 54 54 55 56 54 57 51 56 57 63 65 66 69 71 71 71 72 73 75 73 73 72 70 70 72 73 72 74 74 74 71 72 73 73 72 72 73 72 74
56 50 52 51 54 53 52 56 56 57 57 57 57 56 67 69 69 67 68 68 69 71 72 70 70 70 69 68 69 67 69 67 69 70 71 71 71 71 70 70 70 70 70 70
52 52 47 45 49 49 46 54 56 58 60 58 53 59 62 61 61 61 63 65 66 67 67 67 66 66 66 66 66 64 66 67 67 68 69 70 70 70 70 70 69 67 66 66
49 49 49 46 46 36 51 59 57 54 56 58 56 57 60 60 62 64 66 64 63 64 65 65 66 66 66 66 65 65 66 65 65 66 67 69 69 68 68 67 65 64 64 63
55 51 41 39 42 49 51 53 53 51 52 58 57 56 56 59 59 55 60 59 61 62 63 65 65 64 64 64 64 63 63 64 64 65 66 66 66 64 64 63 62 62 61 60
49 51 43 40 31 37 48 54 59 58 47 57 58 56 56 57 48 51 61 60 61 63 64 62 63 63 64 64 62 60 61 62 62 63 63 63 62 61 60 60 59 59 59 58
38 40 37 38 34 47 55 57 58 41 43 56 57 56 56 55 57 57 60 61 63 63 61 63 63 62 63 63 61 58 59 59 61 61 60 60 60 58 58 57 58 57 56 55
39 38 38 40 34 34 57 55 47 51 58 58 59 57 56 55 53 55 58 61 61 61 62 63 62 61 61 61 59 56 56 58 59 58 56 56 57 57 58 55 54 49 47 44
41 51 41 45 46 53 58 56 58 58 56 58 59 59 59 59 60 60 60 60 60 59 60 61 60 58 59 59 57 53 55 56 55 54 54 53 53 54 53 48 44 42 45 43
51 55 49 48 54 54 56 59 58 59 57 58 60 59 59 57 58 57 59 58 58 59 58 58 57 56 55 56 56 55 54 54 52 50 49 50 44 43 45 47 45 43 41 40
52 53 50 51 55 56 55 56 58 58 58 58 58 58 57 56 55 56 56 56 56 56 56 55 53 53 53 54 53 52 51 49 45 44 39 38 41 41 42 41 41 40 42 41
57 52 45 43 50 53 52 57 58 56 55 56 55 55 56 55 54 55 54 54 51 48 48 49 51 51 51 51 48 47 44 40 35 36 38 38 38 38 38 38 39 41 40 40

GFSCGP_sfc_temp_135.txt.gz
Temp
71 66 63 69 71 73 74 71 70 75 81 75 74 75 79 85 86 86 87 87 87 89 94 96 98 98 94 92 87 88 82 85 75 80 76 80 74 71 71 72 77 79 81 80
67 62 72 75 75 72 71 68 67 73 78 76 74 74 80 83 84 86 87 87 89 90 92 95 93 94 89 89 83 85 85 82 74 73 74 77 71 74 73 71 71 70 73 74
65 69 74 73 71 68 69 67 67 67 74 76 73 69 74 82 85 86 87 89 90 90 90 92 90 91 89 85 80 83 83 78 77 76 73 76 81 76 73 73 73 71 75 77
68 75 71 70 68 71 64 73 71 69 65 61 75 60 74 79 79 83 85 85 88 90 93 94 94 91 88 90 90 90 83 74 74 72 70 73 79 74 78 84 79 76 77 79
63 67 67 66 68 73 68 76 72 70 67 66 67 63 71 78 74 80 83 85 87 88 90 91 92 94 97 95 94 87 84 79 75 78 78 82 80 86 89 83 80 78 80 81
69 78 74 70 75 75 76 71 70 70 68 56 64 64 66 73 76 80 84 85 85 87 89 89 91 92 93 97 97 91 87 84 83 80 80 81 81 82 86 83 82 80 80 76
66 68 74 76 69 74 71 64 54 53 55 54 69 64 67 76 80 82 81 82 84 87 88 88 88 89 90 91 92 91 87 83 84 81 81 80 81 79 81 79 82 73 77 73
52 51 67 73 70 66 67 65 58 47 51 58 69 60 70 80 82 82 82 83 84 85 87 86 86 86 88 89 89 89 89 85 84 82 81 80 81 83 84 82 79 83 76 77
54 54 70 72 74 73 65 61 71 60 62 56 59 67 74 78 77 79 80 80 80 81 83 84 85 85 85 85 83 85 87 86 86 84 80 78 79 78 81 82 83 85 86 86
56 51 67 71 74 74 69 72 58 62 47 45 56 58 60 69 73 76 77 77 78 81 83 83 84 83 84 83 83 83 84 84 83 80 78 76 74 78 82 81 81 84 85 86
66 59 56 62 62 62 66 64 64 63 61 49 49 51 69 67 66 73 77 78 79 81 82 83 84 84 85 85 85 83 83 82 80 81 81 80 81 82 82 81 82 83 82 83
67 60 47 55 65 70 68 63 65 55 51 46 48 45 72 71 75 75 77 78 80 81 82 84 84 84 84 84 83 82 80 80 81 83 82 82 83 83 81 82 82 82 81 82
63 56 46 50 55 66 62 62 63 60 51 52 46 47 63 72 73 75 76 77 78 79 81 82 81 81 82 82 82 81 81 79 80 81 82 78 78 79 78 79 80 80 81 81
60 56 51 42 43 51 54 62 65 62 51 53 53 51 60 66 69 72 73 76 77 76 78 80 77 76 75 80 80 80 79 80 79 79 77 75 74 75 76 76 76 77 78 78
61 51 58 56 53 49 48 53 58 56 58 48 56 58 51 58 70 72 74 75 75 76 78 79 78 73 76 77 76 76 76 76 75 75 75 73 74 75 75 74 75 75 75 75
62 54 57 55 60 58 55 61 62 63 63 62 62 61 72 73 73 71 71 72 72 74 76 78 76 74 73 73 72 71 72 71 71 70 71 71 72 72 72 72 73 72 73 73
57 56 53 48 58 55 50 59 61 63 65 64 58 64 68 66 66 66 68 69 69 72 73 73 71 70 69 69 69 68 69 71 70 71 72 73 72 71 72 72 71 70 69 69
55 55 56 48 51 38 57 63 64 61 64 66 64 64 66 66 67 69 70 66 66 68 68 69 69 68 70 70 69 69 69 69 69 70 71 72 73 71 71 70 68 67 66 65
60 56 46 43 45 54 57 58 58 57 57 64 58 59 63 63 64 62 66 65 65 66 68 70 71 69 69 69 69 67 66 67 68 69 69 70 70 68 67 66 64 64 64 63
57 57 48 45 35 40 51 59 64 62 51 60 63 58 57 59 57 53 62 66 65 65 64 66 69 69 69 68 67 65 64 65 65 67 67 67 66 65 63 63 61 62 61 61
44 45 41 43 39 50 58 61 63 46 46 58 60 58 58 58 58 59 64 62 64 65 66 68 68 67 67 68 66 63 63 62 65 65 65 64 64 62 61 61 61 60 57 56
44 42 41 43 37 37 62 59 51 54 60 60 59 58 57 60 62 63 64 64 63 64 66 67 66 66 66 66 64 61 60 63 63 62 61 61 61 61 62 56 55 55 53 51
44 54 46 49 48 58 62 59 61 62 59 56 59 60 61 62 63 64 64 65 65 65 66 67 65 63 63 64 63 59 60 61 60 59 58 58 56 55 54 52 49 49 50 47
55 60 52 51 58 59 59 62 60 61 58 60 61 62 63 61 62 62 62 62 63 64 63 63 62 60 59 61 61 60 60 60 57 54 52 50 49 49 45 45 47 44 44 44
55 57 53 52 58 59 59 60 61 62 63 62 63 62 61 61 60 60 60 60 61 61 61 60 58 56 56 59 58 58 55 51 47 45 44 44 40 40 43 43 44 43 46 44
62 55 49 50 55 58 54 59 62 60 60 61 60 59 61 60 58 59 58 57 56 54 54 53 53 53 53 53 51 49 47 44 40 37 36 38 39 39 39 38 39 42 41 40

GFSCGP_sfc_temp_138.txt.gz
Temp
70 62 59 64 68 70 70 69 68 73 80 75 73 74 78 83 84 83 85 86 86 86 91 90 90 90 89 90 88 84 78 74 75 77 75 75 75 72 70 71 70 71 70 68
63 58 68 72 72 70 69 67 68 75 80 76 74 72 78 81 82 84 85 85 86 87 88 90 88 88 89 84 83 83 75 76 75 74 70 69 74 74 71 68 71 70 69 68
60 65 72 70 69 67 67 65 67 68 75 76 73 68 73 80 83 85 87 87 88 88 87 86 87 86 86 82 82 80 76 74 73 70 70 69 67 70 70 68 67 69 69 69
64 72 70 68 67 69 62 73 72 70 66 59 72 55 69 75 78 82 84 85 86 87 89 88 87 85 84 82 83 82 79 75 73 71 72 69 70 68 72 71 70 70 71 69
61 65 66 66 67 73 67 75 71 69 66 64 65 60 67 77 74 78 82 85 85 88 88 87 87 83 87 87 84 82 80 77 75 74 73 73 71 75 75 75 72 72 71 71
65 74 72 70 73 74 76 71 70 69 65 54 62 62 63 69 74 77 82 84 84 86 88 88 89 90 86 87 85 82 78 76 75 73 73 71 70 72 73 73 75 74 72 70
61 63 69 73 67 73 71 63 52 49 51 51 66 62 65 75 80 81 80 81 84 86 86 86 85 86 86 86 89 83 79 77 77 74 74 74 74 75 74 73 73 73 71 71
52 50 63 73 68 64 65 62 53 42 46 53 66 58 66 79 83 82 83 82 83 84 84 84 84 84 86 84 83 85 83 80 80 78 77 76 76 78 79 76 74 73 72 73
53 52 71 73 74 72 64 59 67 57 60 51 59 66 72 77 77 79 80 80 79 80 81 82 83 83 82 81 81 82 82 83 82 81 80 79 79 78 77 76 76 74 74 73
54 49 66 69 73 73 68 72 56 58 43 42 54 58 58 68 72 76 77 77 78 80 81 81 82 81 82 81 80 81 81 74 75 78 77 76 77 77 78 77 75 73 71 71
60 48 53 65 62 61 63 60 61 60 56 47 45 48 65 68 66 67 67 76 77 80 81 81 81 82 82 82 82 78 79 79 78 76 78 77 75 74 69 68 69 68 70 72
61 50 40 52 67 68 64 62 61 50 47 55 49 42 62 62 68 64 59 60 79 80 81 80 79 81 81 80 80 78 75 75 75 75 72 70 73 74 73 74 76 76 75 76
61 49 40 46 54 62 58 64 63 59 54 48 43 45 62 63 65 66 59 56 76 79 80 79 76 77 78 78 78 78 77 77 78 74 74 70 70 70 70 70 70 72 72 73
58 53 49 40 46 52 51 55 62 55 47 46 48 46 54 54 55 56 70 75 76 76 77 78 79 77 76 75 77 78 76 77 77 76 73 70 69 70 70 70 70 71 72 72
57 43 46 52 52 52 53 52 54 50 53 43 49 55 52 51 52 53 69 74 75 75 77 77 77 74 71 72 70 73 72 72 71 72 73 70 71 71 71 70 70 70 71 71
53 46 56 44 52 53 48 54 53 54 55 61 59 56 62 61 61 67 70 71 71 72 74 76 73 71 69 69 69 69 70 69 71 70 71 72 70 70 69 68 68 68 68 68
56 56 52 47 57 54 47 52 57 53 58 62 55 62 67 66 66 66 68 69 69 70 70 70 69 68 67 68 67 66 68 69 69 69 71 71 71 71 70 69 67 65 63 63
53 54 54 48 52 38 55 64 64 62 66 68 67 66 67 67 68 70 69 66 66 67 67 68 68 68 68 69 68 68 68 67 67 68 69 70 70 69 68 66 63 62 62 61
59 55 47 43 45 53 57 59 59 58 58 66 62 63 65 65 66 62 66 66 65 66 68 68 70 69 68 68 68 67 65 65 66 66 67 68 67 65 64 62 60 60 59 58
58 56 49 46 39 39 50 60 66 63 47 62 63 61 61 63 54 55 64 66 65 66 66 66 68 68 66 66 65 65 64 63 63 64 64 65 64 62 60 59 58 58 58 58
48 48 42 44 41 49 58 62 64 45 44 61 62 61 61 58 58 61 65 65 65 65 66 67 66 64 65 66 65 62 62 61 63 63 63 62 61 59 59 58 58 56 55 55
44 41 41 44 40 37 62 61 51 53 58 57 59 61 60 61 63 64 65 65 66 66 66 68 66 66 66 65 62 60 59 61 62 61 60 59 58 58 57 53 53 52 52 50
45 53 45 49 47 58 60 57 60 59 57 59 58 59 61 61 62 63 63 64 65 65 65 66 64 63 63 63 61 57 59 61 60 58 56 53 52 52 51 48 48 47 47 45
57 60 52 53 56 56 57 61 61 61 58 61 63 62 62 61 62 62 62 62 62 63 62 62 61 59 58 59 59 58 58 55 52 50 48 48 46 46 46 44 44 42 42 42
55 59 55 54 57 58 61 60 61 61 62 62 64 63 61 61 60 61 60 60 60 58 58 56 54 54 54 55 54 53 52 48 45 44 43 42 42 39 38 41 41 41 42 41
61 55 52 48 56 54 55 60 63 61 60 61 59 59 60 60 59 59 58 57 55 53 52 52 51 50 49 50 48 47 46 43 39 37 37 36 35 37 37 38 38 41 40 40

GFSCGP_sfc_temp_141.txt.gz
Temp
63 53 50 56 59 60 60 58 57 63 70 67 66 67 68 72 72 70 71 72 73 75 79 78 81 82 75 75 73 74 72 67 66 71 65 70 69 68 68 67 69 67 67 66
58 51 60 64 64 62 61 57 57 64 71 66 63 62 68 71 70 72 73 73 72 72 75 77 76 76 73 74 73 73 73 71 70 70 69 70 69 67 67 67 68 68 68 67
52 57 65 63 62 60 59 57 58 58 66 66 62 56 62 70 72 74 75 75 74 71 73 75 75 75 73 74 73 73 71 70 70 69 67 66 67 67 65 66 66 67 68 68
56 63 62 60 59 63 55 66 65 63 61 48 61 43 57 64 69 73 74 73 71 73 73 72 73 72 75 76 74 72 71 70 71 70 67 66 65 64 66 68 67 68 69 69
54 58 57 58 60 66 59 69 66 64 57 51 56 46 52 62 64 69 70 73 72 72 75 72 75 76 76 75 72 70 68 68 70 71 71 69 70 71 66 67 64 64 65 68
60 68 66 63 68 69 70 66 64 62 53 42 50 49 49 56 64 68 72 72 74 73 72 74 74 75 73 73 73 72 70 68 67 67 68 68 69 67 66 66 65 65 66 67
54 58 64 67 61 64 65 52 40 41 42 40 55 52 52 63 70 73 71 69 71 70 70 71 71 71 71 71 71 71 71 69 69 66 66 65 62 63 64 64 68 66 66 66
42 42 58 65 60 55 55 51 42 33 34 41 58 49 56 70 73 74 74 70 71 69 68 68 69 68 70 70 70 71 69 68 68 68 68 66 66 66 67 68 64 68 69 68
43 45 64 67 68 65 56 52 58 49 50 41 47 54 66 71 71 72 70 69 66 67 68 69 70 68 68 69 69 68 67 68 69 70 70 69 67 67 68 69 68 67 67 65
53 42 58 64 67 67 62 64 51 48 35 32 44 49 47 57 60 66 66 64 65 67 68 68 68 69 69 70 71 70 68 67 67 68 67 69 69 69 68 65 64 64 62 60
55 45 47 56 58 55 56 55 55 52 47 35 36 39 56 52 57 58 57 56 55 59 65 67 68 69 71 70 70 68 68 68 68 65 66 64 66 65 65 62 62 63 60 60
56 46 40 45 55 59 57 55 53 37 40 44 43 38 57 54 59 59 56 60 60 65 64 66 66 68 70 69 69 67 66 68 66 67 65 62 65 62 62 63 64 64 64 64
57 42 36 40 46 55 51 56 55 52 47 42 38 38 55 57 53 57 56 58 62 60 60 67 67 66 67 67 69 68 66 66 66 69 67 65 66 62 63 62 63 64 64 64
51 44 42 37 43 47 48 52 51 47 36 42 43 44 52 52 52 53 53 53 56 57 57 62 63 63 64 65 65 65 64 64 64 64 62 60 60 64 64 63 64 62 63 62
48 41 44 45 46 49 50 48 48 46 47 41 48 47 50 51 53 54 55 56 57 57 56 64 62 61 61 61 62 62 62 62 61 62 61 60 61 61 61 61 61 61 61 62
47 40 44 43 48 50 48 50 48 48 49 49 46 48 54 55 59 56 58 62 63 64 63 63 62 61 60 60 59 60 60 60 60 60 60 61 61 61 60 59 59 58 58 58
45 43 42 38 45 47 40 47 52 53 52 51 41 46 55 54 57 57 59 61 61 61 62 60 59 58 57 57 58 57 57 59 59 59 61 62 61 60 57 57 56 55 53 53
47 44 44 40 45 32 49 61 61 56 58 57 54 57 58 59 58 59 60 59 59 60 60 59 58 57 58 57 57 57 58 58 58 58 59 60 59 57 56 54 53 51 50 50
52 46 38 34 33 47 52 54 54 51 48 58 55 56 58 57 56 52 59 59 56 57 57 57 57 56 56 57 57 57 56 56 57 57 57 57 57 55 53 51 50 50 49 48
53 49 38 36 30 30 44 56 62 59 39 55 56 53 53 55 42 44 55 58 57 57 56 55 57 57 56 58 56 55 53 53 53 55 55 55 54 52 50 49 47 47 46 47
39 38 34 35 33 41 53 58 61 39 39 53 54 52 50 47 48 52 59 57 57 56 55 55 54 54 54 54 52 51 51 50 53 55 54 53 50 48 47 46 45 44 44 44
37 32 30 35 31 31 56 53 44 46 52 55 52 52 52 52 53 54 55 56 56 55 55 56 53 53 52 52 50 48 48 50 52 51 48 45 44 46 47 41 41 42 41 41
35 43 37 40 37 48 53 49 52 52 51 53 54 53 54 54 53 55 53 54 56 53 52 52 50 49 49 50 48 45 44 47 46 44 42 41 42 43 41 39 38 39 39 40
49 52 42 44 47 50 53 53 54 54 52 58 59 57 55 50 52 51 51 50 50 49 48 48 47 46 45 47 48 44 44 44 42 39 38 39 37 38 36 38 40 40 40 40
47 50 48 44 48 51 55 54 54 55 56 57 57 54 52 51 50 48 48 47 47 45 45 45 43 43 43 44 43 42 41 39 36 35 35 34 34 34 36 39 38 38 40 39
50 44 40 38 47 47 49 56 58 54 52 52 51 50 50 48 46 46 45 44 43 42 42 41 40 40 41 40 39 39 38 36 33 33 35 33 34 35 36 35 36 40 39 40

GFSCGP_sfc_temp_144.txt.gz
Temp
57 48 46 51 54 54 55 52 52 57 65 59 58 62 66 69 68 65 66 68 67 69 79 79 76 75 71 67 70 74 70 67 71 71 69 68 66 66 65 67 68 68 68 69
52 47 55 59 59 56 55 51 52 57 63 59 60 60 67 68 69 70 70 68 68 68 70 73 72 72 68 66 70 70 69 67 69 67 66 68 67 66 66 66 66 66 67 68
48 54 61 60 57 55 54 52 52 52 59 62 57 56 58 65 70 69 69 70 69 70 70 71 72 68 66 67 69 69 67 68 70 68 67 66 65 65 65 64 65 66 68 70
51 60 58 57 55 58 49 60 59 58 55 46 56 42 52 60 64 67 70 68 69 70 67 67 67 66 68 68 71 71 70 70 70 67 66 65 65 63 64 65 66 68 68 67
49 54 54 53 56 61 53 63 61 59 55 48 52 44 50 56 59 62 66 70 66 66 69 69 68 68 69 69 70 69 69 68 68 68 68 66 65 67 64 65 65 64 64 66
55 63 60 58 61 62 64 61 56 55 52 42 50 46 45 51 59 62 63 68 67 70 71 70 71 70 67 69 68 68 68 68 67 67 66 65 65 63 61 62 61 61 62 63
52 54 59 63 57 61 60 53 39 37 38 37 50 47 48 59 66 68 69 64 64 64 67 67 66 66 66 65 68 68 67 65 66 65 64 64 63 63 62 61 61 61 62 62
38 38 52 61 58 50 52 53 37 30 31 37 52 43 49 66 70 70 70 65 66 64 66 66 66 66 67 66 64 67 67 66 65 66 64 63 63 62 62 63 63 63 64 65
40 41 55 61 63 59 52 47 57 43 41 37 41 50 60 62 66 67 67 66 64 63 65 65 66 66 66 66 64 64 65 65 65 64 64 64 64 64 64 64 65 64 65 64
45 37 54 56 60 62 57 57 46 43 29 27 38 43 43 49 52 60 61 57 59 63 65 65 65 65 65 65 65 65 64 61 62 63 65 65 64 65 65 64 62 62 60 60
50 44 47 53 52 50 51 51 51 46 41 31 35 38 51 50 50 52 51 57 59 57 62 65 65 66 64 65 65 63 64 63 62 62 61 62 61 62 62 60 61 61 59 59
53 45 38 44 52 57 52 52 48 37 38 42 41 39 55 52 52 53 54 56 55 58 59 59 63 64 65 63 63 61 60 61 61 61 63 60 61 60 59 60 60 61 61 61
50 39 33 40 47 52 50 54 57 48 45 39 37 36 52 55 54 53 52 53 56 57 56 59 59 58 61 61 61 61 61 60 60 61 60 58 59 58 60 60 58 59 61 62
51 41 39 33 40 45 45 51 50 47 36 40 42 42 48 50 50 53 54 53 54 56 56 58 56 55 58 59 60 60 58 58 59 59 58 57 57 57 58 60 62 62 60 58
47 40 42 42 47 46 48 48 48 45 45 41 45 47 47 49 50 52 56 56 59 58 57 57 56 56 55 55 57 58 57 58 57 57 57 56 56 56 56 57 56 56 57 59
45 39 43 38 43 45 46 49 49 48 49 47 48 45 54 53 58 56 56 58 59 59 59 59 60 58 56 56 56 57 56 56 57 56 56 57 56 55 53 53 53 53 52 53
41 40 39 34 43 40 39 46 48 50 51 51 43 47 54 54 56 55 58 60 58 59 59 58 58 57 56 55 56 54 55 56 56 55 57 56 55 54 52 52 51 50 48 48
43 41 40 36 40 30 48 57 58 53 54 54 51 50 54 53 55 56 59 58 58 59 58 56 54 54 55 55 55 54 56 55 55 54 55 55 54 53 51 50 48 47 45 45
50 44 37 33 33 45 49 52 51 47 45 55 51 51 52 55 55 51 57 56 54 55 54 54 54 54 54 54 54 54 53 53 54 53 53 54 52 49 47 45 43 43 43 43
51 45 38 34 31 30 44 54 59 55 38 51 55 52 52 51 41 44 53 56 55 55 55 54 55 54 52 51 51 51 49 49 50 52 51 48 47 45 43 41 41 41 41 42
37 36 32 30 29 40 51 54 57 36 39 52 52 49 50 47 47 50 53 54 54 54 54 53 51 48 46 47 47 45 44 43 46 47 46 45 43 43 40 39 38 38 38 38
35 32 28 31 26 29 53 53 44 44 48 50 50 48 48 49 50 50 51 50 50 48 48 48 47 45 45 45 44 41 39 42 44 43 42 41 39 42 42 36 36 36 35 35
34 41 34 36 34 44 49 48 49 52 50 53 51 50 51 49 48 48 46 46 46 45 44 44 43 42 42 43 41 38 38 41 41 38 37 36 38 38 36 34 33 33 35 37
45 47 40 41 47 47 49 50 51 51 49 51 51 49 49 45 46 45 44 42 42 42 42 42 41 40 39 39 41 38 39 39 37 35 34 34 33 34 33 34 34 34 37 38
43 46 41 40 46 50 53 52 50 50 51 48 48 47 45 45 43 42 41 41 40 39 39 39 38 37 36 37 37 36 37 36 33 32 32 31 31 30 32 35 37 37 39 39
44 41 38 39 47 45 46 52 53 48 45 46 45 43 43 43 40 40 37 38 37 36 36 35 35 34 35 35 35 35 35 34 30 29 33 33 34 35 36 35 36 40 39 39